map of KHZE home
Great Circle Mapper logo
KHZE - Airport
Location
City:  Hazen, North Dakota, United States
Name:Mercer County Regional
ICAO:KHZE
FAA:HZE

Details
Type:Airport (Airfield)
Use:Public/Civil
Latitude:4717'24"N (47.289944)
Longitude:10134'51"W (-101.580971)
Datum:WGS 1984
Elevation:1814 ft (553 m)
Variation:6.8E (WMM2010 magnetic declination)
Runways:1
Longest:4999 × 75 ft (1524 × 23 m), paved

Time
Time Zone:UTC-6 (DST-5)
Local Time:

Weather
METAR:KHZE 252255Z AUTO 28004KT 3SM -SN FEW003 FEW007 00/00 A2972 RMK AO2 P0019

Related Locations
Nearby:
Farthest:YWKS: 10640 mi / 17124 km
Wilkins Runway (Casey), Upper Peterson Glacier, AQ

Find:

   beyond  
but within

Other Information
Maps:
NOTAMs:
Links:
Sources:

  
flag of United States
flag of North Dakota
  

Sectional Chart

Flight Planning
at skyvector.com

Satellite Image

Google Maps Satellite View

 

Copyright © 2004-2014 Karl L. Swartz. All rights reserved.
The Great Circle Mapper name and logo are trademarks of the Great Circle Mapper.
All other trademarks mentioned herein belong to their respective owners.
Please see credits for attibutions and further copyright information.

  Follow gcmap on Facebook Follow gcmap on Twitter

hCard Microformat

Geo Microformat